,,Stat6,,Stat2,,Stat8,,Stat9,,Stat10,,Wind1,,Wind1,
time,status,PA1M_AVG,status,PR1M_SUM,status,RH1M_AVG,status,SR1M_AVG,status,TA1M_AVG,status,W1dAve1m,status,W1sAve1m,
2005-07-30, 00:00:00,VALID,917.594,VALID,0,VALID,98.9296,VALID,-0.0169808,VALID,20.0135,VALID,325,VALID,0,
2005-07-30, 00:01:00,VALID,917.577,VALID,0,VALID,99.3136,VALID,0,VALID,20.0398,VALID,325,VALID,0,
2005-07-30, 00:02:00,VALID,917.559,VALID,0,VALID,99.2882,VALID,0,VALID,20.0331,VALID,325,VALID,0,
2005-07-30, 00:03:00,VALID,917.541,VALID,0,VALID,98.6714,VALID,0,VALID,19.9424,VALID,325,VALID,0.0281613,
2005-07-30, 00:04:00,VALID,917.509,VALID,0,VALID,98.8914,VALID,-0.0169808,VALID,19.9131,VALID,325,VALID,0.0450149,
2005-07-30, 00:05:00,VALID,917.488,VALID,0,VALID,98.7935,VALID,0,VALID,19.8746,VALID,325,VALID,0.134961,
2005-07-30, 00:06:00,VALID,917.454,VALID,0,VALID,98.9054,VALID,0,VALID,19.8488,VALID,349,VALID,0.568979,
2005-07-30, 00:07:00,VALID,917.431,VALID,0,VALID,99.236,VALID,0,VALID,19.8356,VALID,7,VALID,0.827785,
2005-07-30, 00:08:00,VALID,917.389,VALID,0,VALID,99.5946,VALID,0.0169808,VALID,19.8423,VALID,8,VALID,0.768821,
2005-07-30, 00:09:00,VALID,917.363,VALID,0,VALID,99.6429,VALID,0.0169808,VALID,19.8292,VALID,8,VALID,0.668341,
2005-07-30, 00:10:00,VALID,917.348,VALID,0,VALID,99.7536,VALID,-0.0169808,VALID,19.8426,VALID,8,VALID,0.659961,
2005-07-30, 00:11:00,VALID,917.32,VALID,0,VALID,99.9512,VALID,0,VALID,19.888,VALID,8,VALID,0.447311,
2005-07-30, 00:12:00,VALID,917.298,VALID,0,VALID,100,VALID,0.0339617,VALID,19.9357,VALID,8,VALID,0.359566,
2005-07-30, 00:13:00,VALID,917.287,VALID,0,VALID,99.999,VALID,0,VALID,19.9556,VALID,8,VALID,0.46059,
2005-07-30, 00:14:00,VALID,917.256,VALID,0,VALID,99.9379,VALID,0.0169808,VALID,19.9645,VALID,8,VALID,0.561806,
2005-07-30, 00:15:00,VALID,917.251,VALID,0,VALID,99.7866,VALID,0,VALID,19.9551,VALID,8,VALID,0.436738,
2005-07-30, 00:16:00,VALID,917.258,VALID,0,VALID,99.7281,VALID,0,VALID,19.9656,VALID,8,VALID,0.342773,
2005-07-30, 00:17:00,VALID,917.268,VALID,0,VALID,99.6836,VALID,-0.0169808,VALID,19.9586,VALID,354,VALID,0.540516,
2005-07-30, 00:18:00,VALID,917.27,VALID,0,VALID,99.8362,VALID,0,VALID,19.9944,VALID,349,VALID,0.418241,
2005-07-30, 00:19:00,VALID,917.267,VALID,0,VALID,99.7765,VALID,0,VALID,20.0041,VALID,348,VALID,0.47311,
2005-07-30, 00:20:00,VALID,917.276,VALID,0,VALID,99.4903,VALID,-0.0169808,VALID,19.9976,VALID,348,VALID,0.432355,
2005-07-30, 00:21:00,VALID,917.298,VALID,0,VALID,99.2882,VALID,0,VALID,19.9817,VALID,348,VALID,0.447443,
2005-07-30, 00:22:00,VALID,917.321,VALID,0,VALID,99.4585,VALID,0,VALID,19.9941,VALID,350,VALID,0.54794,
2005-07-30, 00:23:00,VALID,917.342,VALID,0,VALID,99.6239,VALID,-0.0169808,VALID,20.0269,VALID,351,VALID,0.392805,
2005-07-30, 00:24:00,VALID,917.334,VALID,0,VALID,99.6836,VALID,0,VALID,20.0294,VALID,351,VALID,0.278819,
2005-07-30, 00:25:00,VALID,917.306,VALID,0,VALID,99.737,VALID,0.0169808,VALID,20.0587,VALID,351,VALID,0.366815,
2005-07-30, 00:26:00,VALID,917.256,VALID,0,VALID,99.5018,VALID,0,VALID,20.0592,VALID,358,VALID,0.495808,
2005-07-30, 00:27:00,VALID,917.23,VALID,0,VALID,99.1788,VALID,0,VALID,20.0105,VALID,39,VALID,0.915206,
2005-07-30, 00:28:00,VALID,917.212,VALID,0,VALID,99.4903,VALID,0,VALID,20.0237,VALID,39,VALID,0.848323,
2005-07-30, 00:29:00,VALID,917.203,VALID,0,VALID,99.4318,VALID,0.0339617,VALID,20.01,VALID,39,VALID,0.590892,
2005-07-30, 00:30:00,VALID,917.227,VALID,0,VALID,99.428,VALID,0.0509425,VALID,20.0194,VALID,39,VALID,0.323242,
2005-07-30, 00:31:00,VALID,917.233,VALID,0,VALID,99.2627,VALID,0.0679233,VALID,20.0046,VALID,39,VALID,0.200893,
2005-07-30, 00:32:00,VALID,917.219,VALID,0,VALID,99.4433,VALID,0.0679233,VALID,20.0006,VALID,37,VALID,0.38548,
2005-07-30, 00:33:00,VALID,917.192,VALID,0,VALID,99.751,VALID,0.0679233,VALID,20.0463,VALID,24,VALID,0.327762,
2005-07-30, 00:34:00,VALID,917.157,VALID,0,VALID,99.7421,VALID,0.0169808,VALID,20.0426,VALID,17,VALID,0.282522,
2005-07-30, 00:35:00,VALID,917.134,VALID,0,VALID,99.6175,VALID,0.0169808,VALID,20.0463,VALID,15,VALID,0,
2005-07-30, 00:36:00,VALID,917.118,VALID,0,VALID,99.5654,VALID,0.0339617,VALID,20.0493,VALID,15,VALID,0,
2005-07-30, 00:37:00,VALID,917.108,VALID,0,VALID,99.676,VALID,0.0169808,VALID,20.0654,VALID,15,VALID,0,
2005-07-30, 00:38:00,VALID,917.124,VALID,0,VALID,99.6798,VALID,0.0849042,VALID,20.0786,VALID,15,VALID,0,
2005-07-30, 00:39:00,VALID,917.117,VALID,0,VALID,99.4433,VALID,0.0169808,VALID,20.0744,VALID,15,VALID,0,
2005-07-30, 00:40:00,VALID,917.134,VALID,0,VALID,99.1597,VALID,0.0339617,VALID,20.0816,VALID,15,VALID,0,
2005-07-30, 00:41:00,VALID,917.122,VALID,0,VALID,98.7007,VALID,0.0339617,VALID,20.0525,VALID,15,VALID,0.0461128,
2005-07-30, 00:42:00,VALID,917.116,VALID,0,VALID,98.6613,VALID,0.0339617,VALID,20.056,VALID,15,VALID,0.181868,
2005-07-30, 00:43:00,VALID,917.107,VALID,0,VALID,98.9385,VALID,0.0339617,VALID,20.056,VALID,15,VALID,0.326349,
2005-07-30, 00:44:00,VALID,917.112,VALID,0,VALID,99.5234,VALID,0.0509425,VALID,20.1171,VALID,15,VALID,0.0974787,
2005-07-30, 00:45:00,VALID,917.117,VALID,0,VALID,99.6328,VALID,0.0169808,VALID,20.1457,VALID,15,VALID,0.00355114,
2005-07-30, 00:46:00,VALID,917.112,VALID,0,VALID,99.4916,VALID,0.0849042,VALID,20.1521,VALID,15,VALID,0,
2005-07-30, 00:47:00,VALID,917.097,VALID,0,VALID,99.3047,VALID,0.0679233,VALID,20.1586,VALID,15,VALID,0,
2005-07-30, 00:48:00,VALID,917.089,VALID,0,VALID,99.175,VALID,0.101885,VALID,20.1588,VALID,15,VALID,0.0327744,
2005-07-30, 00:49:00,VALID,917.081,VALID,0,VALID,98.8164,VALID,0.101885,VALID,20.1365,VALID,15,VALID,0.163446,
2005-07-30, 00:50:00,VALID,917.054,VALID,0,VALID,98.5328,VALID,0.0679233,VALID,20.0813,VALID,14,VALID,0.33647,
2005-07-30, 00:51:00,VALID,917.048,VALID,0,VALID,98.7337,VALID,0.0339617,VALID,20.0843,VALID,9,VALID,0.268102,
2005-07-30, 00:52:00,VALID,917.027,VALID,0,VALID,98.8037,VALID,0.0679233,VALID,20.0642,VALID,9,VALID,0.280469,
2005-07-30, 00:53:00,VALID,917.005,VALID,0,VALID,98.6854,VALID,0.0679233,VALID,20.0393,VALID,9,VALID,0.103871,
2005-07-30, 00:54:00,VALID,916.972,VALID,0,VALID,98.8418,VALID,0.0679233,VALID,20.0165,VALID,9,VALID,0,
2005-07-30, 00:55:00,VALID,916.955,VALID,0,VALID,98.852,VALID,0.0679233,VALID,19.9777,VALID,9,VALID,0.115141,
2005-07-30, 00:56:00,VALID,916.958,VALID,0,VALID,98.8278,VALID,0.0849042,VALID,19.9395,VALID,9,VALID,0.390053,
2005-07-30, 00:57:00,VALID,916.956,VALID,0,VALID,99.0682,VALID,0.0339617,VALID,19.9201,VALID,9,VALID,0.400195,
2005-07-30, 00:58:00,VALID,916.962,VALID,0,VALID,99.3975,VALID,0.0169808,VALID,19.9136,VALID,9,VALID,0.343023,
2005-07-30, 00:59:00,VALID,916.969,VALID,0,VALID,99.6506,VALID,-0.0169808,VALID,19.9303,VALID,9,VALID,0.37035,
2005-07-30, 01:00:00,VALID,916.971,VALID,0,VALID,99.7421,VALID,-0.0339617,VALID,19.9671,VALID,9,VALID,0.202035,
2005-07-30, 01:01:00,VALID,916.965,VALID,0,VALID,99.8349,VALID,0,VALID,19.9894,VALID,9,VALID,0.255903,
2005-07-30, 01:02:00,VALID,916.961,VALID,0,VALID,99.826,VALID,-0.0339617,VALID,20.0018,VALID,9,VALID,0.270312,
2005-07-30, 01:03:00,VALID,916.943,VALID,0,VALID,99.7052,VALID,-0.0169808,VALID,20.0115,VALID,9,VALID,0.200707,
2005-07-30, 01:04:00,VALID,916.944,VALID,0,VALID,99.6798,VALID,-0.0339617,VALID,20.0341,VALID,9,VALID,0.252734,
2005-07-30, 01:05:00,VALID,916.924,VALID,0,VALID,99.6824,VALID,-0.0509425,VALID,20.05,VALID,11,VALID,0.572599,
2005-07-30, 01:06:00,VALID,916.903,VALID,0,VALID,99.5565,VALID,-0.0169808,VALID,20.0801,VALID,19,VALID,0.638951,
2005-07-30, 01:07:00,VALID,916.904,VALID,0,VALID,99.4585,VALID,-0.0169808,VALID,20.0928,VALID,19,VALID,0.604911,
2005-07-30, 01:08:00,VALID,916.907,VALID,0,VALID,99.3314,VALID,-0.0169808,VALID,20.0826,VALID,19,VALID,0.665365,
2005-07-30, 01:09:00,VALID,916.902,VALID,0,VALID,99.3416,VALID,-0.0679233,VALID,20.1027,VALID,19,VALID,0.881579,
2005-07-30, 01:10:00,VALID,916.893,VALID,0,VALID,99.1864,VALID,-0.0339617,VALID,20.099,VALID,18,VALID,0.8857,
2005-07-30, 01:11:00,VALID,916.889,VALID,0,VALID,99.0923,VALID,-0.0339617,VALID,20.0992,VALID,16,VALID,0.873001,
2005-07-30, 01:12:00,VALID,916.865,VALID,0,VALID,99.0249,VALID,-0.0509425,VALID,20.0828,VALID,18,VALID,0.957775,
2005-07-30, 01:13:00,VALID,916.865,VALID,0,VALID,98.9664,VALID,-0.0339617,VALID,20.0505,VALID,19,VALID,0.90516,
2005-07-30, 01:14:00,VALID,916.852,VALID,0,VALID,99.0796,VALID,-0.0679233,VALID,20.0277,VALID,18,VALID,0.968178,
2005-07-30, 01:15:00,VALID,916.848,VALID,0,VALID,99.0809,VALID,-0.0339617,VALID,20.0247,VALID,15,VALID,0.892624,
2005-07-30, 01:16:00,VALID,916.852,VALID,0,VALID,99.1114,VALID,-0.0339617,VALID,20.0088,VALID,8,VALID,0.968584,
2005-07-30, 01:17:00,VALID,916.847,VALID,0,VALID,99.1674,VALID,-0.0339617,VALID,20.0053,VALID,7,VALID,0.939546,
2005-07-30, 01:18:00,VALID,916.829,VALID,0,VALID,99.189,VALID,0.0169808,VALID,19.9959,VALID,4,VALID,0.887386,
2005-07-30, 01:19:00,VALID,916.797,VALID,0,VALID,99.236,VALID,-0.0339617,VALID,19.982,VALID,6,VALID,1.08789,
2005-07-30, 01:20:00,VALID,916.78,VALID,0,VALID,99.2208,VALID,-0.0169808,VALID,19.9986,VALID,14,VALID,1.09499,
2005-07-30, 01:21:00,VALID,916.755,VALID,0,VALID,99.1216,VALID,-0.0169808,VALID,19.9954,VALID,17,VALID,0.862351,
2005-07-30, 01:22:00,VALID,916.747,VALID,0,VALID,99.2246,VALID,-0.0339617,VALID,20.0018,VALID,13,VALID,0.449479,
2005-07-30, 01:23:00,VALID,916.745,VALID,0,VALID,99.1941,VALID,-0.0169808,VALID,20.0118,VALID,13,VALID,0.283854,
2005-07-30, 01:24:00,VALID,916.733,VALID,0,VALID,99.1228,VALID,-0.0509425,VALID,19.9951,VALID,13,VALID,0.222284,
2005-07-30, 01:25:00,VALID,916.719,VALID,0,VALID,99.1572,VALID,-0.0509425,VALID,19.9889,VALID,13,VALID,0.0239583,
2005-07-30, 01:26:00,VALID,916.713,VALID,0,VALID,99.1076,VALID,-0.0679233,VALID,19.9926,VALID,13,VALID,0,
2005-07-30, 01:27:00,VALID,916.716,VALID,0,VALID,98.969,VALID,-0.0679233,VALID,19.9765,VALID,13,VALID,0,
2005-07-30, 01:28:00,VALID,916.715,VALID,0,VALID,98.7744,VALID,-0.0339617,VALID,19.9531,VALID,13,VALID,0.0477431,
2005-07-30, 01:29:00,VALID,916.704,VALID,0,VALID,98.6307,VALID,0.0169808,VALID,19.9295,VALID,13,VALID,0.125868,
2005-07-30, 01:30:00,VALID,916.67,VALID,0,VALID,98.1806,VALID,0,VALID,19.8615,VALID,13,VALID,0.491629,
2005-07-30, 01:31:00,VALID,916.634,VALID,0,VALID,98.7083,VALID,0,VALID,19.8622,VALID,11,VALID,0.601393,
2005-07-30, 01:32:00,VALID,916.58,VALID,0,VALID,98.8202,VALID,0,VALID,19.8361,VALID,7,VALID,0.808293,
2005-07-30, 01:33:00,VALID,916.551,VALID,0,VALID,99.0923,VALID,0,VALID,19.8195,VALID,7,VALID,0.638445,
2005-07-30, 01:34:00,VALID,916.53,VALID,0,VALID,99.1674,VALID,0,VALID,19.7964,VALID,7,VALID,0.489211,
2005-07-30, 01:35:00,VALID,916.506,VALID,0,VALID,99.1966,VALID,0.0169808,VALID,19.7934,VALID,7,VALID,0.345052,
2005-07-30, 01:36:00,VALID,916.493,VALID,0,VALID,99.4535,VALID,0.0339617,VALID,19.816,VALID,7,VALID,0.467578,
2005-07-30, 01:37:00,VALID,916.463,VALID,0,VALID,99.7841,VALID,0,VALID,19.8749,VALID,24,VALID,0.766927,
2005-07-30, 01:38:00,VALID,916.43,VALID,0,VALID,99.8146,VALID,0,VALID,19.9129,VALID,34,VALID,0.853016,
2005-07-30, 01:39:00,VALID,916.392,VALID,0,VALID,99.5361,VALID,0,VALID,19.9524,VALID,26,VALID,0.681784,
2005-07-30, 01:40:00,VALID,916.357,VALID,0,VALID,99.1852,VALID,0.0169808,VALID,19.9653,VALID,27,VALID,0.607813,
2005-07-30, 01:41:00,VALID,916.319,VALID,0,VALID,99.2246,VALID,0,VALID,19.9882,VALID,27,VALID,0.521621,
2005-07-30, 01:42:00,VALID,916.271,VALID,0,VALID,98.997,VALID,0.0339617,VALID,19.9844,VALID,26,VALID,0.718378,
2005-07-30, 01:43:00,VALID,916.226,VALID,0,VALID,98.9779,VALID,0,VALID,19.9916,VALID,22,VALID,0.882449,
2005-07-30, 01:44:00,VALID,916.202,VALID,0,VALID,98.9893,VALID,-0.0169808,VALID,19.972,VALID,20,VALID,0.916109,
2005-07-30, 01:45:00,VALID,916.19,VALID,0,VALID,98.8762,VALID,0.0169808,VALID,19.9623,VALID,19,VALID,0.661222,
2005-07-30, 01:46:00,VALID,916.172,VALID,0,VALID,98.983,VALID,0,VALID,19.9559,VALID,19,VALID,0.562099,
2005-07-30, 01:47:00,VALID,916.176,VALID,0,VALID,98.9474,VALID,-0.0169808,VALID,19.9618,VALID,19,VALID,0.313902,
2005-07-30, 01:48:00,VALID,916.17,VALID,0,VALID,98.7732,VALID,0,VALID,19.9462,VALID,19,VALID,0.0967262,
2005-07-30, 01:49:00,VALID,916.152,VALID,0,VALID,98.5519,VALID,0,VALID,19.93,VALID,19,VALID,0.0321584,
2005-07-30, 01:50:00,VALID,916.14,VALID,0,VALID,98.3891,VALID,0,VALID,19.9139,VALID,19,VALID,0.000831117,
2005-07-30, 01:51:00,VALID,916.117,VALID,0,VALID,98.6218,VALID,-0.0169808,VALID,19.9206,VALID,19,VALID,0.113636,
2005-07-30, 01:52:00,VALID,916.097,VALID,0,VALID,98.4425,VALID,0,VALID,19.9039,VALID,19,VALID,0.00260417,
2005-07-30, 01:53:00,VALID,916.077,VALID,0,VALID,98.2467,VALID,-0.0339617,VALID,19.8746,VALID,19,VALID,0,
2005-07-30, 01:54:00,VALID,916.06,VALID,0,VALID,98.5989,VALID,0,VALID,19.8555,VALID,19,VALID,0,
2005-07-30, 01:55:00,VALID,916.052,VALID,0,VALID,98.721,VALID,0.0169808,VALID,19.8461,VALID,19,VALID,0.0295139,
2005-07-30, 01:56:00,VALID,916.028,VALID,0,VALID,98.5125,VALID,-0.0169808,VALID,19.7909,VALID,19,VALID,0.393864,
2005-07-30, 01:57:00,VALID,916.025,VALID,0,VALID,98.3815,VALID,0,VALID,19.7099,VALID,59,VALID,0.531436,
2005-07-30, 01:58:00,VALID,916.02,VALID,0,VALID,98.6689,VALID,0.0169808,VALID,19.6784,VALID,80,VALID,0.538132,
2005-07-30, 01:59:00,VALID,916.007,VALID,0,VALID,98.8507,VALID,0.0169808,VALID,19.6262,VALID,111,VALID,0.486281,
2005-07-30, 02:00:00,VALID,916.004,VALID,0,VALID,99.2042,VALID,0,VALID,19.6009,VALID,111,VALID,0.516797,
2005-07-30, 02:01:00,VALID,915.991,VALID,0,VALID,99.484,VALID,-0.0169808,VALID,19.5815,VALID,111,VALID,0.456577,
2005-07-30, 02:02:00,VALID,916.001,VALID,0,VALID,99.6455,VALID,-0.0339617,VALID,19.5624,VALID,111,VALID,0.0361555,
2005-07-30, 02:03:00,VALID,916.018,VALID,0,VALID,99.7243,VALID,0,VALID,19.5497,VALID,111,VALID,0.0272436,
2005-07-30, 02:04:00,VALID,916.039,VALID,0,VALID,99.8273,VALID,0,VALID,19.536,VALID,111,VALID,0.284784,
2005-07-30, 02:05:00,VALID,916.068,VALID,0,VALID,99.9252,VALID,0.0169808,VALID,19.5236,VALID,111,VALID,0.31359,
2005-07-30, 02:06:00,VALID,916.069,VALID,0,VALID,100,VALID,0.0169808,VALID,19.5457,VALID,111,VALID,0.0552885,
2005-07-30, 02:07:00,VALID,916.075,VALID,0,VALID,100,VALID,0.0169808,VALID,19.6265,VALID,111,VALID,0.219131,
2005-07-30, 02:08:00,VALID,916.086,VALID,0,VALID,100,VALID,0,VALID,19.6851,VALID,111,VALID,0.259673,
2005-07-30, 02:09:00,VALID,916.096,VALID,0,VALID,100,VALID,0,VALID,19.7298,VALID,111,VALID,0.306784,
2005-07-30, 02:10:00,VALID,916.115,VALID,0,VALID,100,VALID,-0.0169808,VALID,19.7822,VALID,111,VALID,0.294212,
2005-07-30, 02:11:00,VALID,916.14,VALID,0,VALID,100,VALID,0,VALID,19.8267,VALID,111,VALID,0.312318,
2005-07-30, 02:12:00,VALID,916.152,VALID,0,VALID,100,VALID,-0.0169808,VALID,19.8625,VALID,111,VALID,0.266513,
2005-07-30, 02:13:00,VALID,916.171,VALID,0,VALID,100,VALID,-0.0169808,VALID,19.892,VALID,123,VALID,0.448038,
2005-07-30, 02:14:00,VALID,916.16,VALID,0,VALID,100,VALID,-0.0169808,VALID,19.9144,VALID,168,VALID,0.467226,
2005-07-30, 02:15:00,VALID,916.172,VALID,0,VALID,100,VALID,0,VALID,19.9335,VALID,168,VALID,0.259527,
2005-07-30, 02:16:00,VALID,916.179,VALID,0,VALID,100,VALID,-0.0169808,VALID,19.9564,VALID,169,VALID,0.40346,
2005-07-30, 02:17:00,VALID,916.185,VALID,0,VALID,100,VALID,0,VALID,19.9792,VALID,169,VALID,0.416903,
2005-07-30, 02:18:00,VALID,916.196,VALID,0,VALID,100,VALID,-0.0169808,VALID,19.9984,VALID,172,VALID,0.442951,
2005-07-30, 02:19:00,VALID,916.192,VALID,0,VALID,99.9329,VALID,0,VALID,20.0145,VALID,174,VALID,0.268555,
2005-07-30, 02:20:00,VALID,916.189,VALID,0,VALID,99.8248,VALID,0,VALID,20.0075,VALID,174,VALID,0.196243,
2005-07-30, 02:21:00,VALID,916.177,VALID,0,VALID,99.7587,VALID,0,VALID,20.0175,VALID,174,VALID,0.177871,
2005-07-30, 02:22:00,VALID,916.165,VALID,0,VALID,99.7116,VALID,0,VALID,20.0202,VALID,174,VALID,0.0195313,
2005-07-30, 02:23:00,VALID,916.152,VALID,0,VALID,99.6417,VALID,0.0169808,VALID,20.0371,VALID,174,VALID,0.00114329,
2005-07-30, 02:24:00,VALID,916.147,VALID,0,VALID,99.5794,VALID,0,VALID,20.0433,VALID,174,VALID,0,
2005-07-30, 02:25:00,VALID,916.139,VALID,0,VALID,99.531,VALID,0,VALID,20.0436,VALID,174,VALID,0,
2005-07-30, 02:26:00,VALID,916.147,VALID,0,VALID,99.4624,VALID,-0.0169808,VALID,20.0366,VALID,174,VALID,0.0694041,
2005-07-30, 02:27:00,VALID,916.144,VALID,0,VALID,99.4268,VALID,-0.0169808,VALID,20.0301,VALID,174,VALID,0.129179,
2005-07-30, 02:28:00,VALID,916.144,VALID,0,VALID,99.4077,VALID,-0.0339617,VALID,20.0339,VALID,174,VALID,0.245312,
2005-07-30, 02:29:00,VALID,916.145,VALID,0,VALID,99.517,VALID,-0.0169808,VALID,20.0336,VALID,174,VALID,0.117369,
2005-07-30, 02:30:00,VALID,916.142,VALID,0,VALID,99.3924,VALID,0,VALID,20.014,VALID,174,VALID,0.0746094,
2005-07-30, 02:31:00,VALID,916.136,VALID,0,VALID,99.3136,VALID,0,VALID,20.0018,VALID,174,VALID,0,
2005-07-30, 02:32:00,VALID,916.138,VALID,0,VALID,99.4128,VALID,0,VALID,20.0013,VALID,174,VALID,0.0604167,
2005-07-30, 02:33:00,VALID,916.133,VALID,0,VALID,99.5946,VALID,0,VALID,20.0118,VALID,174,VALID,0.386209,
2005-07-30, 02:34:00,VALID,916.138,VALID,0,VALID,99.8159,VALID,-0.0169808,VALID,20.0334,VALID,176,VALID,0.478609,
2005-07-30, 02:35:00,VALID,916.143,VALID,0,VALID,99.8718,VALID,-0.0169808,VALID,20.0557,VALID,181,VALID,0.372796,
2005-07-30, 02:36:00,VALID,916.146,VALID,0,VALID,99.9112,VALID,-0.0169808,VALID,20.0751,VALID,182,VALID,0.326308,
2005-07-30, 02:37:00,VALID,916.142,VALID,0,VALID,99.8413,VALID,0.0169808,VALID,20.1015,VALID,182,VALID,0.233487,
2005-07-30, 02:38:00,VALID,916.137,VALID,0,VALID,99.7536,VALID,-0.0339617,VALID,20.1047,VALID,182,VALID,0.0814986,
2005-07-30, 02:39:00,VALID,916.131,VALID,0,VALID,99.6887,VALID,-0.0169808,VALID,20.1082,VALID,182,VALID,0.424352,
2005-07-30, 02:40:00,VALID,916.114,VALID,0,VALID,99.7027,VALID,-0.0339617,VALID,20.1047,VALID,182,VALID,0.350497,
2005-07-30, 02:41:00,VALID,916.105,VALID,0,VALID,99.6633,VALID,-0.0169808,VALID,20.0982,VALID,182,VALID,0.26835,
2005-07-30, 02:42:00,VALID,916.107,VALID,0,VALID,99.6417,VALID,0,VALID,20.0788,VALID,182,VALID,0.0366319,
2005-07-30, 02:43:00,VALID,916.109,VALID,0,VALID,99.5883,VALID,0,VALID,20.0595,VALID,182,VALID,0,
2005-07-30, 02:44:00,VALID,916.107,VALID,0,VALID,99.3581,VALID,0,VALID,20.014,VALID,182,VALID,0,
2005-07-30, 02:45:00,VALID,916.106,VALID,0,VALID,98.8838,VALID,0,VALID,19.9265,VALID,182,VALID,0.160252,
2005-07-30, 02:46:00,VALID,916.107,VALID,0,VALID,99.0211,VALID,0,VALID,19.8848,VALID,182,VALID,0.198847,
2005-07-30, 02:47:00,VALID,916.092,VALID,0,VALID,99.2424,VALID,-0.0339617,VALID,19.8694,VALID,182,VALID,0,
2005-07-30, 02:48:00,VALID,916.089,VALID,0,VALID,99.4001,VALID,0,VALID,19.856,VALID,182,VALID,0,
2005-07-30, 02:49:00,VALID,916.098,VALID,0,VALID,99.5933,VALID,0,VALID,19.8528,VALID,182,VALID,0,
2005-07-30, 02:50:00,VALID,916.108,VALID,0,VALID,99.9674,VALID,0,VALID,19.9007,VALID,182,VALID,0.364524,
2005-07-30, 02:51:00,VALID,916.119,VALID,0,VALID,100,VALID,0,VALID,19.9596,VALID,182,VALID,0.267671,
2005-07-30, 02:52:00,VALID,916.13,VALID,0,VALID,100,VALID,-0.0339617,VALID,19.9656,VALID,182,VALID,0.105808,
2005-07-30, 02:53:00,VALID,916.117,VALID,0,VALID,100,VALID,0,VALID,19.9822,VALID,182,VALID,0,
2005-07-30, 02:54:00,VALID,916.1,VALID,0,VALID,99.9385,VALID,0,VALID,19.9171,VALID,182,VALID,0,
2005-07-30, 02:55:00,VALID,916.092,VALID,0,VALID,99.9201,VALID,-0.0169808,VALID,19.8714,VALID,182,VALID,0,
2005-07-30, 02:56:00,VALID,916.097,VALID,0,VALID,99.899,VALID,0,VALID,19.8552,VALID,182,VALID,0.020419,
2005-07-30, 02:57:00,VALID,916.097,VALID,0,VALID,99.4064,VALID,-0.0169808,VALID,19.7782,VALID,182,VALID,0.132292,
2005-07-30, 02:58:00,VALID,916.096,VALID,0,VALID,99.4077,VALID,-0.0169808,VALID,19.7199,VALID,182,VALID,0.289971,
2005-07-30, 02:59:00,VALID,916.093,VALID,0,VALID,99.5883,VALID,-0.0169808,VALID,19.7077,VALID,182,VALID,0.427734,
2005-07-30, 03:00:00,VALID,916.096,VALID,0,VALID,99.6061,VALID,0,VALID,19.6687,VALID,182,VALID,0.512962,
2005-07-30, 03:01:00,VALID,916.123,VALID,0,VALID,99.8159,VALID,0.0169808,VALID,19.6679,VALID,181,VALID,0.286044,
2005-07-30, 03:02:00,VALID,916.12,VALID,0,VALID,99.9151,VALID,0,VALID,19.6652,VALID,181,VALID,0.118546,
2005-07-30, 03:03:00,VALID,916.116,VALID,0,VALID,100,VALID,0,VALID,19.6647,VALID,181,VALID,0.206055,
2005-07-30, 03:04:00,VALID,916.096,VALID,0,VALID,100,VALID,0,VALID,19.7166,VALID,181,VALID,0.224964,
2005-07-30, 03:05:00,VALID,916.073,VALID,0,VALID,100,VALID,0,VALID,19.7363,VALID,181,VALID,0.313772,
2005-07-30, 03:06:00,VALID,916.067,VALID,0,VALID,100,VALID,0,VALID,19.7457,VALID,182,VALID,0.414063,
2005-07-30, 03:07:00,VALID,916.043,VALID,0,VALID,100,VALID,-0.0169808,VALID,19.7136,VALID,300,VALID,0.66441,
2005-07-30, 03:08:00,VALID,916.021,VALID,0,VALID,100,VALID,0,VALID,19.7782,VALID,310,VALID,0.515816,
2005-07-30, 03:09:00,VALID,916.014,VALID,0,VALID,100,VALID,0,VALID,19.7974,VALID,310,VALID,0.481001,
2005-07-30, 03:10:00,VALID,915.98,VALID,0,VALID,100,VALID,0,VALID,19.8071,VALID,310,VALID,0.193266,
2005-07-30, 03:11:00,VALID,915.957,VALID,0,VALID,100,VALID,-0.0169808,VALID,19.817,VALID,312,VALID,0.297061,
2005-07-30, 03:12:00,VALID,915.94,VALID,0,VALID,100,VALID,0,VALID,19.8302,VALID,313,VALID,0.384001,
2005-07-30, 03:13:00,VALID,915.961,VALID,0,VALID,100,VALID,0.0169808,VALID,19.8234,VALID,316,VALID,0.140816,
2005-07-30, 03:14:00,VALID,915.994,VALID,0,VALID,100,VALID,0,VALID,19.8431,VALID,316,VALID,0.102108,
2005-07-30, 03:15:00,VALID,916.042,VALID,0,VALID,100,VALID,0,VALID,19.8237,VALID,310,VALID,0.101749,
2005-07-30, 03:16:00,VALID,916.108,VALID,0,VALID,100,VALID,-0.0169808,VALID,19.8041,VALID,254,VALID,0.682478,
2005-07-30, 03:17:00,VALID,916.132,VALID,0,VALID,100,VALID,0,VALID,19.7907,VALID,252,VALID,0.146775,
2005-07-30, 03:18:00,VALID,916.138,VALID,0,VALID,100,VALID,-0.0169808,VALID,19.7969,VALID,252,VALID,0,
2005-07-30, 03:19:00,VALID,916.14,VALID,0,VALID,100,VALID,0,VALID,19.8011,VALID,252,VALID,0,
2005-07-30, 03:20:00,VALID,916.12,VALID,0,VALID,100,VALID,0,VALID,19.8078,VALID,215,VALID,0.317951,
2005-07-30, 03:21:00,VALID,916.127,VALID,0,VALID,100,VALID,-0.0339617,VALID,19.7944,VALID,158,VALID,0.289993,
2005-07-30, 03:22:00,VALID,916.142,VALID,0,VALID,100,VALID,-0.0339617,VALID,19.8076,VALID,171,VALID,0.183333,
2005-07-30, 03:23:00,VALID,916.118,VALID,0,VALID,100,VALID,0,VALID,19.8008,VALID,171,VALID,0.0821221,
2005-07-30, 03:24:00,VALID,916.13,VALID,0,VALID,100,VALID,-0.0509425,VALID,19.7844,VALID,192,VALID,0.47154,
2005-07-30, 03:25:00,VALID,916.141,VALID,0,VALID,100,VALID,-0.0339617,VALID,19.7718,VALID,224,VALID,0.834223,
2005-07-30, 03:26:00,VALID,916.113,VALID,0,VALID,100,VALID,-0.0339617,VALID,19.779,VALID,219,VALID,0.325648,
2005-07-30, 03:27:00,VALID,916.089,VALID,0,VALID,100,VALID,-0.0169808,VALID,19.7653,VALID,204,VALID,0.266352,
2005-07-30, 03:28:00,VALID,916.091,VALID,0,VALID,100,VALID,0,VALID,19.7653,VALID,200,VALID,0.0892079,
2005-07-30, 03:29:00,VALID,916.062,VALID,0,VALID,100,VALID,0.0339617,VALID,19.7715,VALID,262,VALID,0.964134,
2005-07-30, 03:30:00,VALID,916.051,VALID,0,VALID,100,VALID,0,VALID,19.7519,VALID,18,VALID,1.30506,
2005-07-30, 03:31:00,VALID,916.033,VALID,0,VALID,100,VALID,-0.0339617,VALID,19.7363,VALID,12,VALID,1.0465,
2005-07-30, 03:32:00,VALID,916.044,VALID,0,VALID,100,VALID,-0.0169808,VALID,19.7199,VALID,348,VALID,0.410633,
2005-07-30, 03:33:00,VALID,916.03,VALID,0,VALID,100,VALID,0,VALID,19.7457,VALID,344,VALID,0.00319602,
2005-07-30, 03:34:00,VALID,916.016,VALID,0,VALID,100,VALID,-0.0169808,VALID,19.7653,VALID,344,VALID,0.225142,
2005-07-30, 03:35:00,VALID,916.031,VALID,0,VALID,100,VALID,-0.0169808,VALID,19.7718,VALID,345,VALID,0.155134,
2005-07-30, 03:36:00,VALID,916.042,VALID,0,VALID,100,VALID,0,VALID,19.7817,VALID,13,VALID,0.654251,
2005-07-30, 03:37:00,VALID,916.051,VALID,0,VALID,100,VALID,-0.0169808,VALID,19.7656,VALID,16,VALID,0.392624,
2005-07-30, 03:38:00,VALID,916.051,VALID,0,VALID,100,VALID,0,VALID,19.7422,VALID,20,VALID,0.52567,